Location: Bronschhofen
(47.4788°N, 9.0353°E)
Time: 20:27:42
(UTC+00:00)

USA 307 - Pass Details

Date: 20 May 2022
Orbit: 552 x 554 km, 54.0° (Epoch: 17 June)

Event Time Altitude Azimuth Distance (km) Brightness Sun altitude
Exits shadow 02:10:19 18° 201° (SSW) 1,395 4.3 -12.5°
Maximum altitude 02:13:00 41° 139° (SE) 822 3.6 -12.2°
Drops below altitude 10° 02:16:57 10° 69° (ENE) 1,846 6.6 -11.8°
Sets 02:19:16 0° 62° (ENE) 2,746 7.9 -11.5°
